RH
10 11 10 10 10 9 8 7 6 6 6 6 7 7 7 7 7 7 7 7 7 7 8 8 8 7 7 7 7 7 7 7 7 7 7 7 7 7 7 11 16 19 20 25 32 37 38 40 41 38 41 44 42 42 45 48 48 48 48 52 53 49 47 44 46 50 46 43 41 34 29 29 24 23 23 22 25 25 26 28 28 30 34 38 40 41 40 40
10 11 10 11 10 10 10 9 7 6 6 6 6 7 7 7 7 7 7 7 7 7 7 8 8 8 7 7 7 7 7 7 6 6 7 6 7 7 7 8 13 18 19 25 32 37 38 39 39 37 39 39 38 37 39 42 43 46 48 51 51 47 48 46 47 48 46 45 43 38 35 33 26 24 22 22 23 22 24 27 28 31 34 39 41 42 40 38
10 11 11 11 11 10 10 10 9 8 7 6 6 6 6 7 7 7 7 7 7 7 7 7 8 8 8 7 7 7 6 6 6 6 7 7 7 7 7 7 11 16 19 25 31 33 35 37 37 35 35 35 34 35 36 39 40 42 46 51 50 45 47 47 47 48 46 44 44 42 40 37 28 24 25 26 24 21 23 25 26 30 34 39 42 43 42 39
10 10 11 11 11 11 11 10 11 10 9 7 6 6 6 6 6 7 7 7 7 7 7 7 7 8 8 8 7 7 6 6 6 6 6 6 7 6 6 7 9 14 19 23 27 30 31 34 36 33 33 33 31 33 35 37 40 42 46 51 49 44 45 45 44 46 45 43 44 42 41 40 31 25 27 27 25 24 25 24 25 28 31 36 40 42 43 40
11 11 11 11 11 11 11 11 11 11 10 10 8 7 6 6 6 6 7 7 7 7 7 7 7 7 8 8 8 7 6 7 7 6 6 6 6 6 6 6 8 12 17 21 23 27 29 32 35 33 33 31 30 32 34 37 39 42 46 49 47 44 45 43 40 42 43 42 43 41 41 42 35 28 26 27 29 30 30 26 24 27 29 32 36 39 41 40
12 11 11 11 11 11 11 11 11 10 10 10 10 9 8 8 7 7 7 7 7 7 7 7 7 7 7 8 8 7 7 8 8 7 6 6 6 6 5 6 7 10 15 18 20 24 27 31 33 32 32 31 31 31 32 36 38 43 46 45 43 43 43 40 37 38 39 41 41 41 40 39 38 36 28 29 34 31 30 26 22 26 28 30 33 36 38 38
12 12 12 12 12 12 12 11 11 11 10 10 10 10 10 9 8 8 7 7 7 7 7 7 7 7 7 7 7 8 7 7 6 6 7 7 7 7 6 5 6 8 12 16 18 21 26 30 32 32 31 30 30 30 31 35 38 44 46 43 42 42 41 37 34 34 37 41 39 37 35 36 42 42 31 29 30 22 24 24 22 25 27 29 32 34 37 37
11 11 12 12 12 12 12 12 11 11 11 11 10 10 10 10 10 9 8 7 7 7 7 7 7 7 7 7 7 8 7 7 6 6 7 7 8 7 7 6 6 7 10 14 16 19 23 29 32 30 30 29 30 30 31 33 36 42 45 42 40 40 39 35 33 32 36 39 35 32 35 39 45 44 34 30 27 19 20 22 22 26 25 27 30 32 35 37
11 11 11 11 11 12 12 12 11 11 11 11 11 10 10 10 10 10 9 9 8 7 7 7 7 7 7 7 8 7 7 7 6 6 7 8 8 8 7 7 6 6 8 12 14 16 19 26 31 29 29 30 30 30 30 31 33 37 41 40 37 34 32 30 30 30 32 33 29 31 35 39 41 42 39 34 27 21 21 21 23 25 25 26 28 30 34 36
11 11 10 11 11 11 11 11 11 11 11 11 11 10 10 10 9 9 9 9 9 8 8 8 8 7 7 8 9 7 7 8 6 6 7 7 8 8 9 8 7 6 8 11 13 14 19 26 29 28 29 29 29 30 29 30 31 33 35 36 33 31 28 25 26 26 30 30 28 32 34 36 36 38 42 38 31 26 23 22 22 23 24 26 27 29 32 35
11 11 10 10 10 10 10 11 10 11 10 10 10 10 10 10 9 9 9 9 9 8 8 8 8 8 8 10 10 8 8 8 6 6 6 6 7 8 9 8 7 7 8 11 12 14 20 25 26 26 27 27 27 29 29 28 30 31 32 33 31 31 28 23 22 24 29 32 31 35 38 38 34 35 40 36 32 31 27 25 24 23 24 25 26 28 31 34
11 11 11 10 10 10 10 10 10 10 10 10 10 10 10 10 10 9 9 9 8 8 8 8 8 8 10 12 11 10 9 8 7 7 6 6 7 7 8 8 7 7 8 10 12 14 17 20 23 25 24 25 27 28 29 28 29 30 31 33 31 30 27 24 23 24 28 32 33 39 43 41 34 34 37 32 31 32 30 29 26 25 25 25 25 27 30 32
10 10 11 10 10 10 10 10 10 10 9 9 9 9 10 10 10 9 9 9 8 8 8 8 8 9 12 13 11 10 9 8 7 7 7 7 7 7 7 7 7 7 7 9 11 13 14 18 21 22 22 24 26 27 28 28 28 29 30 32 33 31 28 26 25 24 26 30 33 38 43 39 33 34 35 30 29 31 30 29 28 27 26 26 26 26 30 31
9 9 10 10 10 11 10 10 10 10 9 9 9 9 9 9 9 9 9 9 9 9 8 8 9 11 13 12 10 9 9 8 7 7 7 7 8 7 6 6 7 7 7 9 11 12 13 16 18 19 21 24 25 26 28 30 29 28 29 32 32 32 30 26 24 24 27 30 32 38 41 37 32 34 33 29 29 30 29 28 27 27 25 27 28 28 29 29
9 9 9 9 10 10 10 10 10 10 10 10 9 9 9 9 9 9 9 9 9 9 9 10 10 13 14 11 10 10 9 7 7 8 8 8 9 8 6 6 8 7 8 9 10 11 13 14 15 18 21 22 23 26 29 30 30 29 31 32 30 30 32 28 25 27 30 31 34 40 43 38 34 33 32 30 29 29 31 29 27 28 25 26 29 30 30 29
9 9 9 9 9 9 10 10 10 10 10 10 10 10 9 9 9 9 9 9 9 9 10 13 13 14 14 10 10 9 8 8 8 8 8 8 9 8 7 7 8 8 8 8 10 11 12 13 15 17 20 21 22 25 27 28 29 30 31 32 31 30 31 30 27 29 33 32 35 41 42 40 37 36 33 31 30 29 31 30 29 29 28 27 28 30 30 28
10 9 9 9 9 9 9 9 9 10 10 10 10 10 10 10 10 10 10 9 10 11 12 14 16 16 13 9 9 9 9 10 9 8 8 8 8 8 8 8 8 9 8 8 9 10 11 13 15 17 19 19 21 24 26 26 28 29 29 31 33 32 31 32 31 31 34 35 37 41 42 40 38 37 35 31 29 30 31 31 29 29 29 28 27 27 27 27
11 11 10 9 9 9 9 9 9 9 9 10 9 10 9 9 10 10 10 11 12 14 14 16 17 15 13 11 11 9 9 10 10 8 7 7 8 8 8 8 9 9 8 7 8 10 11 12 15 17 18 18 19 21 23 24 25 28 29 29 31 32 32 33 34 33 35 37 38 40 42 40 39 37 35 32 30 29 31 31 30 29 29 30 28 26 25 25
11 11 11 10 10 9 9 9 9 9 9 9 9 9 9 10 11 12 13 14 16 16 14 15 15 11 9 10 11 10 9 9 10 8 7 7 8 8 8 8 8 9 8 7 8 9 10 13 15 16 17 17 17 18 21 24 26 29 30 28 29 30 30 32 34 34 37 39 38 39 41 40 40 39 34 33 33 31 31 31 30 29 29 30 30 27 26 24
11 11 11 11 11 10 10 9 9 9 9 9 9 9 10 11 11 12 14 14 14 12 10 11 12 10 8 8 8 8 8 8 9 8 7 7 8 8 7 8 9 9 9 8 9 9 10 12 14 14 15 16 17 19 21 24 28 31 32 32 31 31 31 32 35 36 38 40 38 36 39 40 40 42 37 35 37 36 35 34 33 31 29 29 29 28 27 26
11 11 11 11 11 10 10 10 9 9 9 9 8 8 10 11 11 11 12 11 10 10 9 9 9 8 8 7 7 7 8 8 8 8 7 7 7 8 8 7 9 11 10 9 9 10 11 12 13 14 15 16 18 19 21 24 27 31 33 32 29 30 34 34 36 39 39 39 39 37 39 40 39 42 43 39 39 38 37 37 36 34 31 28 28 28 28 28
11 11 11 11 11 11 11 11 10 10 10 10 8 8 10 11 11 11 11 10 8 8 9 9 8 8 7 7 7 7 8 7 8 8 7 7 7 9 9 8 10 11 10 10 9 10 11 11 12 13 14 16 17 18 21 23 26 28 29 29 27 29 35 37 36 40 41 39 40 41 39 38 37 40 43 42 40 40 40 40 39 37 33 30 28 28 28 30
13 12 12 11 11 11 11 11 11 11 11 10 9 9 11 11 11 11 12 11 9 7 8 8 8 8 7 7 7 7 8 7 8 8 8 8 7 9 12 10 10 11 11 10 9 10 10 10 11 12 14 15 16 18 20 23 25 26 27 27 27 29 34 37 36 38 41 39 39 41 39 38 38 38 42 41 40 42 43 43 42 39 35 32 29 28 29 30
15 14 13 12 11 11 11 11 12 12 11 10 10 10 11 11 10 10 11 11 9 7 7 8 8 8 8 8 8 8 9 8 9 8 8 8 7 9 12 11 11 11 11 10 9 8 9 9 10 11 13 15 17 19 19 21 23 24 26 26 27 32 34 35 36 37 40 40 38 40 40 38 38 38 42 42 40 41 42 43 43 40 38 36 34 32 32 33
17 16 15 13 12 12 11 12 12 11 11 12 12 12 11 10 9 10 12 11 9 8 8 8 8 8 8 9 9 10 10 10 10 10 9 8 7 8 11 12 11 11 11 11 9 8 8 9 10 10 13 16 17 18 18 19 21 22 25 26 28 33 35 35 36 36 39 40 38 39 42 40 35 35 40 41 41 40 41 43 44 42 40 39 38 37 36 36
18 18 17 15 14 12 12 14 13 11 12 14 14 13 11 10 9 11 13 13 11 9 8 9 9 9 9 10 11 11 12 11 11 11 10 9 8 8 11 12 11 11 11 10 10 8 7 9 10 10 12 15 16 16 17 18 20 21 23 26 27 30 33 35 36 37 38 39 38 39 42 43 37 34 36 39 42 42 41 43 44 43 42 41 40 38 37 38
20 19 19 17 15 14 14 15 13 12 14 15 13 12 12 10 10 12 15 14 12 10 10 11 11 12 12 13 12 12 13 13 11 11 10 10 9 9 11 12 11 10 10 11 10 9 7 8 10 10 11 13 15 15 16 18 20 20 22 25 27 29 33 34 36 40 38 38 42 42 42 43 39 37 38 39 43 42 38 40 41 41 43 43 42 40 39 39
21 20 20 19 17 15 15 15 13 13 15 14 13 13 13 11 11 14 16 16 13 12 13 13 13 13 14 14 13 12 13 12 12 13 11 9 10 10 11 12 12 11 11 12 10 8 8 7 8 9 10 12 13 14 17 18 19 21 22 25 28 30 33 33 35 39 38 38 43 44 43 42 38 38 41 41 42 40 35 36 38 38 40 42 43 44 43 41
23 21 21 20 18 17 16 15 15 15 15 14 14 14 12 12 13 14 17 17 13 11 13 13 13 14 14 14 13 12 12 12 12 13 11 9 10 12 12 11 12 11 12 11 9 9 10 7 7 8 9 11 12 13 17 18 21 22 23 26 29 31 33 34 35 36 37 39 42 42 43 42 37 35 40 43 42 39 33 32 35 36 39 41 43 44 45 43
23 22 21 21 19 18 17 16 16 16 15 14 14 14 13 15 16 16 18 17 12 12 13 13 14 13 13 13 14 13 12 12 12 12 11 10 9 12 13 12 12 12 13 12 10 10 11 8 7 7 8 10 11 14 16 18 22 23 22 25 29 32 33 35 36 36 38 41 40 41 41 41 37 31 34 41 39 34 31 32 34 35 36 39 41 42 43 44
24 22 22 21 21 20 18 19 18 17 16 15 15 15 16 18 18 17 18 16 13 14 13 13 14 13 13 14 14 13 12 12 12 12 12 11 10 11 13 13 13 13 14 13 11 11 11 9 8 7 7 8 11 14 16 19 24 23 21 24 28 32 34 35 37 38 41 44 40 37 38 39 38 31 29 34 35 31 30 30 33 35 35 35 37 38 40 43
24 23 22 21 21 20 19 20 19 18 17 16 16 16 17 19 19 17 17 14 13 13 13 14 14 14 13 14 13 13 12 12 12 13 13 12 11 12 13 13 13 14 14 14 13 11 11 11 9 8 7 7 9 13 15 19 26 25 23 25 28 32 35 35 37 39 42 43 37 34 36 36 34 31 28 30 33 32 30 29 30 32 35 35 34 36 38 41
25 24 23 22 22 21 20 20 20 19 19 18 19 18 17 19 19 17 16 14 14 14 14 15 15 14 14 14 14 13 12 12 12 13 14 13 12 12 12 13 12 13 14 16 16 13 13 13 10 9 9 7 7 10 13 17 23 24 23 25 27 32 36 36 36 39 39 38 35 35 37 34 30 29 28 27 29 30 29 29 29 29 31 33 34 36 39 41
27 26 25 24 23 22 21 21 21 21 20 19 21 19 18 19 18 17 16 15 14 15 15 16 16 15 14 14 14 13 12 13 13 14 14 14 13 12 12 13 12 12 14 17 18 16 16 16 11 8 9 8 6 8 11 15 20 21 21 23 24 28 35 35 35 38 37 34 34 36 37 33 28 26 26 26 27 28 29 28 27 27 29 32 34 36 39 41
29 28 27 26 26 26 25 25 24 22 22 22 21 19 18 19 18 18 18 16 15 16 15 15 16 16 15 14 14 13 13 14 14 15 15 14 14 13 12 12 12 12 13 16 19 18 17 16 11 9 9 8 7 7 9 14 19 20 21 24 23 23 29 33 33 34 33 32 34 36 34 30 26 25 25 26 26 28 28 27 26 27 30 33 32 32 35 38
30 30 29 29 32 32 30 30 29 27 27 24 20 19 19 19 19 19 19 18 17 16 15 15 15 15 15 14 14 14 13 14 16 16 16 15 14 14 13 12 12 13 13 15 19 19 17 15 13 12 9 8 8 6 7 12 17 21 23 23 21 21 26 32 34 33 34 35 33 33 33 29 25 24 23 24 26 27 27 27 27 27 29 30 29 29 31 32
32 32 30 31 36 36 34 34 32 32 33 27 22 20 18 18 19 19 22 23 20 18 17 16 15 14 14 13 13 14 14 14 15 16 17 17 16 15 15 15 13 13 14 15 17 18 16 15 14 13 9 8 9 8 7 10 14 20 22 20 22 25 26 30 34 34 36 37 33 31 36 33 25 21 21 25 26 26 27 28 26 26 26 26 26 27 29 30
33 33 34 37 39 40 39 37 35 37 36 29 25 24 20 19 19 19 22 25 22 21 20 18 17 16 16 15 15 16 15 14 16 17 18 19 19 16 16 17 16 13 14 15 16 17 17 15 14 13 11 9 9 10 9 9 11 17 21 21 25 27 26 28 33 35 36 36 31 30 35 35 25 20 22 26 26 25 26 26 26 25 24 24 25 27 29 31
35 38 42 44 43 43 42 37 38 41 37 31 29 28 24 21 20 19 21 22 21 22 21 19 20 19 18 18 19 20 17 15 17 18 18 20 20 19 17 17 18 16 14 15 16 18 18 16 15 14 12 11 10 10 11 11 10 13 19 24 25 25 26 28 32 34 36 36 33 30 32 32 24 18 22 26 26 26 26 26 26 25 23 23 25 26 28 30
41 42 43 44 45 45 42 39 41 42 38 33 31 30 27 24 23 21 21 21 20 20 20 19 19 19 19 18 19 22 20 18 19 18 18 19 20 20 19 17 19 18 16 16 18 19 20 18 17 16 14 11 11 10 8 10 10 11 16 22 25 26 26 29 32 33 33 34 34 32 31 31 24 18 20 25 26 26 26 25 24 24 24 24 24 25 26 30
46 46 45 46 46 45 45 45 44 40 38 37 34 32 30 27 25 24 23 22 21 20 19 19 19 18 19 18 18 20 19 19 19 19 19 19 19 20 20 18 18 20 19 19 20 20 22 20 18 18 16 11 11 10 8 8 9 11 14 17 23 27 26 30 34 35 32 31 32 32 31 31 28 21 18 22 25 24 24 23 22 23 25 25 25 25 25 29
48 45 42 44 45 45 48 48 43 40 40 40 38 36 34 31 28 26 24 23 22 21 20 20 19 19 18 18 18 18 18 18 19 19 18 18 18 20 21 19 18 19 19 21 22 22 23 22 21 20 18 13 11 10 9 8 8 10 13 14 19 25 26 28 32 32 31 31 30 31 31 31 30 24 19 20 23 21 20 22 22 22 24 26 27 27 27 29
47 42 40 40 43 48 51 48 44 43 41 40 39 39 37 35 32 29 27 26 24 22 22 20 20 20 19 19 18 17 17 17 18 19 18 18 18 18 20 20 19 18 19 21 23 25 24 24 24 23 20 17 14 13 12 10 8 9 12 13 15 20 22 24 26 26 28 32 32 32 33 33 31 25 19 18 20 19 18 20 22 22 24 26 29 30 29 29
46 44 42 41 42 48 50 49 49 48 45 44 42 40 40 38 35 33 32 29 27 24 23 22 21 21 20 20 19 18 17 17 17 18 17 17 17 17 19 20 19 19 21 24 26 26 26 26 27 26 24 23 22 20 16 14 11 9 10 11 12 15 19 21 23 25 28 33 34 32 32 33 32 27 20 17 17 18 17 18 20 22 24 27 30 32 31 30
49 46 45 44 44 47 47 49 53 55 54 53 51 49 47 42 39 37 36 34 31 28 26 24 23 22 21 21 20 19 18 17 17 18 18 17 15 16 18 19 20 21 23 27 27 25 25 28 28 27 26 25 24 22 18 15 14 11 9 10 9 10 14 18 22 25 28 31 33 33 32 31 30 27 21 16 16 17 17 19 20 21 25 29 32 34 32 31
54 50 48 52 54 54 53 52 55 60 61 61 62 58 52 47 43 42 40 37 34 32 31 29 27 26 24 23 22 21 19 18 18 19 20 19 17 17 19 19 20 23 25 27 26 25 27 29 28 27 26 23 22 21 18 17 16 14 11 10 9 9 11 14 18 21 24 29 31 31 32 32 30 28 24 19 18 17 16 18 21 22 24 29 33 33 31 30
62 60 61 67 68 65 64 62 61 65 66 66 67 64 60 55 50 46 44 41 37 35 34 34 32 31 29 27 25 24 22 21 20 20 20 20 19 20 20 20 21 24 25 26 27 30 31 30 29 28 26 24 23 22 21 20 18 16 13 11 10 10 10 11 13 14 18 26 28 28 31 32 29 29 29 23 18 16 16 16 19 21 22 25 30 31 30 30
64 65 69 76 74 69 70 72 72 74 72 70 70 67 65 63 58 52 49 46 42 39 36 36 35 33 32 31 29 27 26 25 23 22 20 20 20 20 19 20 22 24 26 27 30 34 35 32 30 29 28 26 25 24 22 22 21 19 17 14 12 12 12 10 11 11 13 19 24 27 29 28 24 24 26 23 17 15 16 15 16 20 22 24 28 30 29 30
65 65 69 73 71 67 68 69 69 68 67 68 70 69 69 67 62 58 54 52 51 47 41 39 37 35 34 32 32 32 30 29 28 26 24 22 20 20 20 20 24 26 27 26 29 34 36 34 32 32 33 31 29 27 25 23 24 23 20 17 16 14 13 11 11 11 11 12 16 22 26 24 20 19 19 20 18 15 15 16 15 18 21 24 28 29 28 29
70 71 72 71 68 65 65 63 62 60 57 59 63 65 66 66 64 62 61 61 61 54 48 44 41 41 40 36 34 34 33 33 33 33 31 27 23 23 22 22 26 31 31 28 29 34 36 36 35 33 35 35 32 30 29 25 25 25 23 20 18 16 15 13 12 12 11 11 13 16 20 20 18 17 15 17 18 16 14 15 15 17 21 24 27 28 26 27
72 74 73 70 67 64 64 63 62 62 60 58 58 60 61 63 64 64 63 62 59 55 55 55 52 52 51 46 41 41 42 41 39 37 37 34 29 28 29 28 29 34 35 30 30 35 38 38 38 37 38 37 33 32 33 29 26 26 24 22 20 17 16 14 13 12 12 12 13 13 15 16 15 15 14 14 15 15 14 15 15 17 20 23 26 28 26 27
74 74 73 72 68 64 63 64 63 64 62 60 61 64 67 67 65 63 61 58 56 57 60 61 57 54 54 53 49 48 48 45 41 39 38 34 30 29 31 33 33 36 38 34 31 37 39 39 40 41 40 39 37 35 34 33 32 30 25 22 20 18 17 16 14 13 12 13 13 14 14 14 12 12 13 11 11 11 12 12 13 15 20 24 28 28 27 28